FREGAT DEB, 45831

Orbit data source: Space-Track

FREGAT DEB, 45831 is space debris in LEO originally from a launch on Mon, 18 Jul 2011 UTC launched from the Tyuratam Missile And Space Complex (TTMTR). Debris objects in space refer to the collection of defunct objects orbiting the Earth. Examples of debris include non-operational satellites, rocket bodies, and fragments generated from explosions, collisions, or faulty payload assembly.

Loading next visibility...
Identifier
45831, 2011-037BR
Orbit
LEO
Country
Flag of CISCIS
Related business
Manufacturer
Lavochkin
Mission
Spacecraft
Bus & Motor
Unknown
Mass
Unknown
Launch date (UTC)
2011-07-18 (14 years ago)
Launch vehicle
Unknown
Launch site
Tyuratam Missile And Space Complex (TTMTR)
Object type
Payload
Rocket body
Debris
Shape & HBR
Unknown shape, 0.1 m
Radar Cross Section
Small (<0.1 m²)

Expand to show TLE details & history
Last TLE update: 2 days ago

TLE from 2 days ago
0 FREGAT DEB
1 45831U 11037BR  25300.99935764  .00010797  00000-0  55921-2 0  9993
2 45831  51.4396 291.3069 1638053 318.2190  30.4240 11.54346488227065
Epoch: 2025-10-27T23:59Z
TLE epoch observation values (Epoch: 2025-10-27T23:59:04.500Z)
Latitude
0.00003°
Longitude
-105.05497°
Altitude
795.799 km
Speed
7.935 km/s
True Right ascension
19h 25m 13s
True Declination
0° 00' 00"
Sunlit
Object was in daylight at epoch
Visualization orbit readout
Latitude
Unknown
Longitude
Unknown
Altitude
Unknown
Speed
Unknown
Apparent Right ascension
Unknown
Apparent Declination
Unknown
Sunlit
N/A
Visualization observer readout
Local Sidereal Time
02:36:15
Azimuth
Unknown
Elevation
Unknown
Doppler factor
Unknown
Orbital elements
Apogee altitude
3,247.196 km
Perigee altitude
537.67 km
Semi-major axis
8,270.57 km
Eccentricity
0.16381
Inclination
51.4396°
RAAN
291.3069°
Arg. of periapsis
318.219°
True anomaly
41.86783°
Mean anomaly
30.424°
Eccentric anomaly
35.93149°
Mean motion
2.88563 °/min
Orbital period
124.76 mins
BSTAR
0.0055921
Loading maneuver chart data...
Computing Atmospheric mass density...
Loading historical data...
Loading historical data...
Loading historical data...
Loading historical data...
Loading historical data...
Loading historical data...
Loading historical data...

Documentation

Showing up to 5 results
|